Location: Unspecified
(0.0000°N, 0.0000°E)
Time: 06:33:47
(UTC+00:00)

Vanguard 3 - Pass Details

Date: 20 November 2019
Orbit: 508 x 3263 km, 33.3° (Epoch: 11 December)

Event Time Altitude Azimuth Distance (km) Brightness Sun altitude
Rises 20:12:25 0° 316° (NW) 5,936 11.8 -34.2°
Reaches altitude 10° 20:17:28 10° 324° (NW) 4,441 11.0 -35.4°
Enters shadow 20:23:07 25° 343° (NNW) 2,800 9.7 -36.6°
